Regional Weather Roundup
Issued by NWS

Home | Current Version | Previous Version | Text Only | Print | Product List | Glossary On
Versions: 1 2 3 4 5 6 7 8 9 10 11 12 13 14 15 16 17 18 19 20 21 22 23 24 25 26 27 28 29 30 31 32 33 34 35 36 37 38 39 40 41 42 43 44 45 46 47 48 49 50
000
ASUS43 KFSD 270910
RWRSD

WEATHER ROUNDUP FOR SOUTH DAKOTA
NATIONAL WEATHER SERVICE SIOUX FALLS SD
400 AM CDT FRI MAR 27 2015

NOTE: "FAIR" INDICATES FEW OR NO CLOUDS BELOW 12,000 FEET WITH NO
SIGNIFICANT WEATHER AND/OR OBSTRUCTIONS TO VISIBILITY.


SDZ001>005-009-010-012>017-271000-
NORTHWEST AND NORTH CENTRAL SOUTH DAKOTA

CITY           SKY/WX    TMP DP  RH WIND       PRES   REMARKS
BUFFALO          N/A     33  30  88 S9        30.01F WCI  25
FAITH            N/A     32  26  78 S14       30.13F WCI  22
MOBRIDGE       MOCLDY    26  15  63 S13       30.20F WCI  15
$$

SDZ012>016-024>037-041>051-057-063-072>074-271000-
SOUTHWEST AND SOUTH CENTRAL SOUTH DAKOTA

CITY           SKY/WX    TMP DP  RH WIND       PRES   REMARKS
RAPID CTY ARPT CLOUDY    33  27  78 SE8       30.11F WCI  26
PIERRE         CLOUDY    27  17  66 SE10      30.23F WCI  17
CUSTER         MOCLDY    33  31  92 W8        30.08F WCI  26
ELLSWORTH AFB  CLOUDY    34  28  78 S10       30.09F WCI  26
PHILIP         CLOUDY    34  26  72 S6        30.18F WCI  29
PINE RIDGE     CLOUDY    35  32  88 S7        30.14F WCI  29
SPEARFISH      CLOUDY    37  34  87 CALM      30.07F
WINNER         CLOUDY    29  20  69 SE10      30.24F WCI  20
$$

SDZ004>011-016>023-039-040-271000-
NORTHEAST SOUTH DAKOTA

CITY           SKY/WX    TMP DP  RH WIND       PRES   REMARKS
ABERDEEN       CLEAR     12   9  87 W6        30.28F WCI   3
WATERTOWN      CLEAR     17  10  74 N3        30.24S
SISSETON         N/A     17  13  84 NW3       30.27F
$$

SDZ017-020-022-023-036>040-048>070-271000-
SOUTHEAST SOUTH DAKOTA

CITY           SKY/WX    TMP DP  RH WIND       PRES   REMARKS
SIOUX FALLS    CLEAR     17  11  77 NW5       30.26S WCI  10
HURON          CLEAR     11   8  88 CALM      30.29S
CHAMBERLAIN    MOCLDY    19  15  82 SE5       30.27S WCI  12
MITCHELL       CLEAR     18  13  80 CALM      30.30S
YANKTON        CLEAR     21  12  68 N5        30.29S WCI  15
$$

ABBREVIATIONS USED IN REMARKS
   TC - TEMPERATURE IN CELSIUS
  WCI - WIND CHILL INDEX
   HX - HEAT INDEX
  VSB - VISIBILITY




USA.gov is the U.S. government's official web portal to all federal, state and local government web resources and services.